User: anonymous   Login
Location: Unspecified
(0.0000°N, 0.0000°E)
Time: 15:05:13
(UTC+00:00)
Language:

PAYLOAD G - Orbit

View from above orbital plane
View from above orbital plane
View from above satellite
View from above satellite

Ground track
Ground track

The orbit data is extracted from the following two-line orbital elements,

1 27846U 03031G   19078.47993167 +.00000032 +00000-0 +33952-4 0  9996
2 27846 098.6845 086.5576 0008138 268.6097 091.4149 14.22207256815478
Epoch (UTC): 19 March 2019 11:31:06
Eccentricity: 0.0008138
inclination: 98.6845°
perigee height: 812 km
apogee height: 824 km
right ascension of ascending node: 86.5576°
argument of perigee: 268.6097°
revolutions per day: 14.22207256
mean anomaly at epoch: 91.4149°
orbit number at epoch: 81547

The dashed part of the orbit path shows where the satellite is in the earth's shadow,  

DLR